Location: London
(42.9830°N, 81.2500°W)
Time: 21:07:31
(UTC-04:00)

Amateur Radio Satellites - All Passes

Search period start: 18 April 2015 20:37
Search period end: 19 April 2015 20:37
Location: London, 42.9830°N, 81.2500°W

Satellite Date Start Highest point End Downlink Frequencies (MHz)
Time Altitude Azimuth
GONETS M04 18 Apr 20:38:11 20:43:52 18° 304° (WNW) 20:49:08
HO-68 18 Apr 20:56:38 21:03:45 69° 70° (ENE) 21:10:56 435.675
AAUSAT CUBESAT 2 18 Apr 20:56:49 21:00:21 27° 69° (ENE) 21:03:58 437.432
Cosmos 2499 18 Apr 21:00:48 21:09:31 57° 284° (WNW) 21:18:08 435.465 / 435.565
RS-15 18 Apr 21:03:05 21:11:37 24° 357° (N) 21:20:22 29.354- 29.394
CUBESAT XI-V 18 Apr 21:03:56 21:07:34 23° 293° (WNW) 21:11:07 437.345
M-CUBED/EXP-1 PRIME 18 Apr 21:04:19 21:07:23 18° 303° (WNW) 21:10:11 437.505
Oscar 11 18 Apr 21:04:37 21:07:23 17° 65° (ENE) 21:10:17 145.826/435.025
STRAND 1 18 Apr 21:13:48 21:18:37 43° 291° (WNW) 21:23:23 437.568
BRITE-PL 18 Apr 21:20:00 21:24:01 47° 261° (W) 21:28:03 437.365/2234.400
ISS 18 Apr 21:20:30 21:23:44 58° 29° (NNE) 21:26:56 145.825
PHONESAT 2.4 18 Apr 21:22:18 21:24:54 19° 154° (SSE) 21:27:33 2401.200-2431.200
DELFI C3 18 Apr 21:23:58 21:26:50 19° 67° (ENE) 21:29:49 145.870
DOVE 4 18 Apr 21:24:19 21:28:27 78° 76° (ENE) 21:32:46 437.250
SO-50 18 Apr 21:24:51 21:28:12 18° 36° (NE) 21:31:38 436.795
DX 1 18 Apr 21:26:29 21:27:37 11° 61° (ENE) 21:29:00 434.975-435.025
UWE-3 18 Apr 21:29:16 21:32:23 20° 66° (ENE) 21:35:41 435.000/436.395/437.385
CINEMA 3 18 Apr 21:29:42 21:33:42 44° 72° (ENE) 21:37:55 145.822/145.860
COMPASS 1 18 Apr 21:42:12 21:46:26 83° 257° (WSW) 21:50:43 437.405
HUMSAT D 18 Apr 21:46:45 21:48:26 12° 63° (ENE) 21:50:20 437.325/437.525
GOMX 1 18 Apr 21:48:02 21:51:53 37° 263° (W) 21:55:49 467.674
PRISM 18 Apr 21:48:54 21:50:05 11° 298° (WNW) 21:51:04 437.425
CANX-2 18 Apr 21:50:36 21:54:41 41° 263° (W) 21:58:47 2200.000
SEEDS 18 Apr 21:55:27 21:59:35 48° 261° (W) 22:03:45 437.485
FUNcube-1 18 Apr 21:59:16 22:03:03 32° 70° (ENE) 22:06:59 145.935
CUTE 1.7 + AOD 2 18 Apr 22:01:09 22:05:06 35° 264° (W) 22:09:04 437.475
VELOX 1 18 Apr 22:01:48 22:03:25 12° 62° (ENE) 22:05:15 145.980
VERMONT LUNAR 18 Apr 22:10:22 22:13:40 49° 171° (S) 22:16:57 437.305
AISAT 18 Apr 22:15:08 22:17:55 17° 65° (ENE) 22:20:51 437.250
UKube-1 18 Apr 22:17:40 22:21:34 34° 70° (ENE) 22:25:30 .
ZACube-1 18 Apr 22:20:57 22:25:06 56° 74° (ENE) 22:29:25 437.345
CUBEBUG 2 18 Apr 22:21:29 22:25:45 87° 71° (ENE) 22:30:11 437.445
Cosmos 2491 18 Apr 22:21:51 22:24:32 12° 75° (ENE) 22:27:56 435.465 / 435.565
ESTCUBE 1 18 Apr 22:27:40 22:29:33 13° 62° (ENE) 22:31:39 437.505/2401.250
YUBILEINY 18 Apr 22:28:18 22:36:04 35° 68° (ENE) 22:43:55 435.215
CUBEBUG 1 18 Apr 22:30:44 22:31:56 11° 62° (ENE) 22:33:22 437.445
AAUSAT CUBESAT 2 18 Apr 22:32:18 22:35:57 27° 266° (W) 22:39:32 437.432
Oscar 11 18 Apr 22:39:01 22:43:14 48° 261° (W) 22:47:29 145.826/435.025
50 SAT 18 Apr 22:42:46 22:46:12 29° 70° (ENE) 22:49:44 437.505
HO-68 18 Apr 22:46:33 22:52:11 23° 269° (W) 22:57:35 435.675
ISS 18 Apr 22:57:29 22:59:50 18° 226° (SW) 23:02:08 145.825
DELFI C3 18 Apr 22:57:57 23:01:46 37° 263° (W) 23:05:35 145.870
DX 1 18 Apr 22:58:58 23:03:18 80° 257° (WSW) 23:07:40 434.975-435.025
PHONESAT 2.4 18 Apr 22:59:18 23:02:46 48° 170° (S) 23:06:14 2401.200-2431.200
Cosmos 2499 18 Apr 23:01:27 23:05:04 12° 309° (NW) 23:08:03 435.465 / 435.565
TIGRISAT 18 Apr 23:02:33 23:05:37 18° 90° (E) 23:08:50 435.000
UNISAT 6 18 Apr 23:03:07 23:06:18 18° 90° (E) 23:09:38 437.425
SO-50 18 Apr 23:04:29 23:09:29 89° 233° (SW) 23:14:24 436.795
UWE-3 18 Apr 23:04:41 23:08:41 38° 263° (W) 23:12:48 435.000/436.395/437.385
CINEMA 3 18 Apr 23:08:30 23:11:17 16° 271° (W) 23:13:58 145.822/145.860
RS-15 18 Apr 23:18:24 23:28:31 36° 31° (NNE) 23:39:12 29.354- 29.394
HUMSAT D 18 Apr 23:19:33 23:23:42 66° 259° (W) 23:27:56 437.325/437.525
O/OREOS (USA 219) 18 Apr 23:23:58 23:25:58 13° 100° (E) 23:28:10 437.305
POLYITAN 1 18 Apr 23:28:21 23:30:47 15° 90° (E) 23:33:24 437.675
VELOX 1 18 Apr 23:35:03 23:39:28 75° 258° (WSW) 23:43:53 145.980
FUNcube-1 18 Apr 23:36:01 23:39:29 23° 268° (W) 23:42:55 145.935
DUCHIFAT 1 18 Apr 23:38:44 23:41:42 19° 92° (E) 23:44:47 145.980
ANTELSAT 18 Apr 23:43:52 23:48:26 47° 98° (E) 23:52:59 437.575/2403.000
VERMONT LUNAR 18 Apr 23:47:44 23:51:02 51° 188° (S) 23:54:19 437.305
AISAT 18 Apr 23:49:55 23:54:11 50° 260° (W) 23:58:29 437.250
QB50P1 18 Apr 23:50:40 23:54:13 26° 94° (E) 23:57:50 145.935-145.965
UKube-1 18 Apr 23:54:23 23:57:49 22° 267° (W) 00:01:10 .
ZACube-1 18 Apr 23:59:45 00:01:58 13° 272° (W) 00:04:00 437.345
ESTCUBE 1 19 Apr 00:01:23 00:05:55 74° 259° (WSW) 00:10:27 437.505/2401.250
CUBEBUG 1 19 Apr 00:03:25 00:07:45 79° 257° (WSW) 00:12:06 437.445
BUGSAT 1 19 Apr 00:08:12 00:11:41 27° 95° (E) 00:15:14 437.445
Cosmos 2491 19 Apr 00:11:19 00:19:53 68° 93° (E) 00:28:34 435.465 / 435.565
QB50P2 19 Apr 00:13:29 00:17:37 46° 99° (E) 00:21:46 145.880/145.840
Cosmos 2504 19 Apr 00:16:32 00:20:56 16° 55° (NE) 00:25:37 435.465 / 435.565
50 SAT 19 Apr 00:17:55 00:21:06 22° 267° (W) 00:24:13 437.505
TISAT 1 19 Apr 00:18:06 00:21:48 32° 70° (ENE) 00:25:33 437.305
SPROUT 19 Apr 00:18:41 00:22:39 40° 71° (ENE) 00:26:40 437.525
YUBILEINY 19 Apr 00:24:51 00:33:21 55° 269° (W) 00:41:41 435.215
SWISSCUBE 19 Apr 00:34:34 00:35:40 11° 59° (ENE) 00:37:02 437.505
POPSAT HIP 1 19 Apr 00:36:39 00:40:58 83° 104° (ESE) 00:45:16 437.405
NANOSAT C BR1 19 Apr 00:37:03 00:41:21 83° 103° (ESE) 00:45:39 145.865
PHONESAT 2.4 19 Apr 00:37:21 00:40:51 54° 186° (S) 00:44:21 2401.200-2431.200
TIGRISAT 19 Apr 00:38:07 00:42:43 52° 287° (WNW) 00:47:16 435.000
UNISAT 6 19 Apr 00:38:50 00:43:24 49° 288° (WNW) 00:47:56 437.425
SO-50 19 Apr 00:47:32 00:49:23 12° 252° (WSW) 00:50:58 436.795
O/OREOS (USA 219) 19 Apr 01:00:20 01:04:54 65° 295° (WNW) 01:09:28 437.305
POLYITAN 1 19 Apr 01:02:52 01:07:03 50° 287° (WNW) 01:11:13 437.675
DUCHIFAT 1 19 Apr 01:13:43 01:17:44 40° 289° (WNW) 01:21:43 145.980
ANTELSAT 19 Apr 01:21:23 01:24:55 21° 295° (WNW) 01:28:20 437.575/2403.000
VERMONT LUNAR 19 Apr 01:25:33 01:28:13 22° 204° (SSW) 01:30:50 437.305
QB50P1 19 Apr 01:26:22 01:30:06 29° 291° (WNW) 01:33:47 145.935-145.965
RS-15 19 Apr 01:31:02 01:42:37 89° 237° (WSW) 01:54:42 29.354- 29.394
ITUPSAT 1 19 Apr 01:31:37 01:35:54 34° 69° (ENE) 01:40:15 437.325
AIST 1 19 Apr 01:34:10 01:37:30 22° 89° (E) 01:40:54
BUGSAT 1 19 Apr 01:43:40 01:47:07 26° 291° (WNW) 01:50:32 437.445
QB50P2 19 Apr 01:50:19 01:53:13 17° 295° (WNW) 01:55:59 145.880/145.840
TISAT 1 19 Apr 01:54:20 01:57:40 22° 267° (W) 02:00:56 437.305
SPROUT 19 Apr 01:55:53 01:58:57 19° 269° (W) 02:01:54 437.525
BEESAT 19 Apr 02:06:53 02:11:40 76° 75° (ENE) 02:16:28 436.000
Cosmos 2504 19 Apr 02:07:55 02:16:17 75° 80° (E) 02:23:58 435.465 / 435.565
SWISSCUBE 19 Apr 02:08:03 02:12:51 85° 73° (ENE) 02:17:41 437.505
Cosmos 2491 19 Apr 02:10:15 02:17:36 28° 296° (WNW) 02:24:45 435.465 / 435.565
STARS 19 Apr 02:10:49 02:10:58 10° 60° (ENE) 02:11:21 437.465
POPSAT HIP 1 19 Apr 02:15:18 02:16:17 11° 298° (WNW) 02:17:02 437.405
NANOSAT C BR1 19 Apr 02:15:46 02:16:38 10° 298° (WNW) 02:17:16 145.865
PHONESAT 2.4 19 Apr 02:15:47 02:18:47 25° 203° (SSW) 02:21:45 2401.200-2431.200
KKS-1 19 Apr 02:30:16 02:33:51 25° 67° (ENE) 02:37:32 437.445
Oscar 19 19 Apr 02:49:25 02:54:35 62° 101° (E) 02:59:45 437.125/150
GONETS M04 19 Apr 02:52:34 02:54:48 11° 49° (NE) 02:57:43
Gurwin Techsat 1B 19 Apr 02:53:12 02:56:47 19° 90° (E) 03:00:31 435.225
ITAMSAT 1 19 Apr 03:07:33 03:11:57 28° 94° (E) 03:16:26 435.822/435.867
ITUPSAT 1 19 Apr 03:09:44 03:13:52 27° 266° (W) 03:17:54 437.325
AIST 1 19 Apr 03:11:08 03:15:01 31° 286° (WNW) 03:18:52
MOZHAYETS 4 19 Apr 03:42:12 03:42:34 10° 60° (ENE) 03:43:11
STARS 19 Apr 03:42:25 03:46:47 90° 84° (E) 03:51:13 437.465
RS-15 19 Apr 03:45:01 03:53:51 25° 257° (WSW) 04:02:20 29.354- 29.394
BEESAT 19 Apr 03:48:15 03:50:10 12° 273° (W) 03:51:48 436.000
SWISSCUBE 19 Apr 03:50:22 03:51:28 10° 274° (W) 03:52:13 437.505
Cosmos 2504 19 Apr 04:02:46 04:08:46 22° 280° (W) 04:14:10 435.465 / 435.565
KKS-1 19 Apr 04:06:23 04:10:23 32° 264° (W) 04:14:23 437.445
DANDE 19 Apr 04:08:28 04:11:16 13° 61° (ENE) 04:14:47 436.750
CUSAT 1 19 Apr 04:17:16 04:22:02 20° 65° (ENE) 04:27:41 437.405
BEESAT 3 19 Apr 04:20:37 04:22:43 14° 111° (ESE) 04:25:00 437.485
Oscar 19 19 Apr 04:29:54 04:33:31 19° 298° (WNW) 04:36:58 437.125/150
Gurwin Techsat 1B 19 Apr 04:31:59 04:37:13 58° 288° (WNW) 04:42:25 435.225
AO-7 19 Apr 04:33:13 04:40:05 29° 93° (E) 04:47:10 29.400- 29.500
HORYU 2 19 Apr 04:39:07 04:43:20 38° 98° (E) 04:47:33 437.375
M-CUBED/EXP-1 PRIME 19 Apr 04:45:35 04:47:24 12° 54° (NE) 04:49:27 437.505
GONETS M04 19 Apr 04:45:39 04:54:20 56° 75° (ENE) 05:02:59
ITAMSAT 1 19 Apr 04:46:48 04:51:33 37° 292° (WNW) 04:56:15 435.822/435.867
JAS-2 19 Apr 05:01:45 05:08:10 43° 95° (E) 05:13:52 435.910
Cosmos 2499 19 Apr 05:02:14 05:04:10 11° 50° (NE) 05:06:36 435.465 / 435.565
MOZHAYETS 4 19 Apr 05:14:27 05:19:06 83° 76° (ENE) 05:23:47
AUBIESAT-1 19 Apr 05:32:28 05:36:27 28° 62° (ENE) 05:40:36 437.475
BEESAT 2 19 Apr 05:47:53 05:52:00 84° 303° (WNW) 05:56:11 435.950
DANDE 19 Apr 05:48:57 05:55:27 68° 78° (ENE) 06:03:34 436.750
BEESAT 3 19 Apr 05:56:17 06:00:19 58° 306° (NW) 06:04:25 437.485
CUSAT 1 19 Apr 05:58:34 06:05:25 87° 261° (W) 06:13:36 437.405
AIST 2 19 Apr 06:02:25 06:06:29 46° 118° (ESE) 06:10:37 435.215
HORYU 2 19 Apr 06:16:15 06:19:48 22° 294° (WNW) 06:23:14 437.375
M-CUBED/EXP-1 PRIME 19 Apr 06:16:49 06:21:32 82° 70° (ENE) 06:26:24 437.505
AO-7 19 Apr 06:25:18 06:33:32 66° 293° (WNW) 06:41:43 29.400- 29.500
CUBESAT XI-V 19 Apr 06:30:14 06:34:36 42° 71° (ENE) 06:38:58 437.345
CUTE-I 19 Apr 06:41:40 06:45:13 18° 90° (E) 06:48:56 437.470
GONETS M04 19 Apr 06:43:07 06:50:50 34° 275° (W) 06:58:20
JAS-2 19 Apr 06:47:00 06:53:07 34° 296° (WNW) 06:58:31 435.910
Cubesat XI-IV 19 Apr 06:48:41 06:52:40 22° 92° (E) 06:56:46 437.490
Cosmos 2499 19 Apr 06:51:44 06:59:44 59° 76° (ENE) 07:07:07 435.465 / 435.565
STRAND 1 19 Apr 06:51:46 06:56:26 38° 69° (ENE) 07:01:11 437.568
MOZHAYETS 4 19 Apr 06:56:25 06:57:03 10° 275° (W) 06:57:22
PRISM 19 Apr 07:01:51 07:05:59 61° 74° (ENE) 07:10:07 437.425
AUBIESAT-1 19 Apr 07:06:45 07:11:05 37° 259° (W) 07:15:32 437.475
BEESAT 2 19 Apr 07:28:42 07:30:49 13° 324° (NW) 07:32:51 435.950
DANDE 19 Apr 07:33:07 07:38:33 25° 270° (W) 07:44:34 436.750
BEESAT 3 19 Apr 07:38:35 07:39:18 10° 328° (NNW) 07:39:52 437.485
AIST 2 19 Apr 07:41:50 07:45:18 23° 317° (NW) 07:48:44 435.215
CUSAT 1 19 Apr 07:43:11 07:47:45 18° 273° (W) 07:52:21 437.405
M-CUBED/EXP-1 PRIME 19 Apr 07:55:08 07:57:04 12° 269° (W) 07:58:45 437.505
CUBESAT XI-V 19 Apr 08:08:42 08:12:15 21° 268° (W) 08:15:41 437.345
AO-7 19 Apr 08:20:05 08:24:56 17° 313° (NW) 08:29:27 29.400- 29.500
CUTE-I 19 Apr 08:20:31 08:25:46 59° 288° (WNW) 08:30:58 437.470
HO-68 19 Apr 08:27:51 08:28:43 10° 82° (E) 08:30:12 435.675
Cubesat XI-IV 19 Apr 08:27:57 08:33:06 50° 290° (WNW) 08:38:13 437.490
STRAND 1 19 Apr 08:31:25 08:35:46 27° 266° (W) 08:40:03 437.568
PRISM 19 Apr 08:40:12 08:41:55 12° 271° (W) 08:43:25 437.425
Cosmos 2499 19 Apr 08:45:46 08:52:21 28° 277° (W) 08:58:21 435.465 / 435.565
DOVE 4 19 Apr 09:22:16 09:26:03 22° 92° (E) 09:30:06 437.250
BRITE-PL 19 Apr 09:22:21 09:27:00 47° 99° (E) 09:32:02 437.365/2234.400
CINEMA 3 19 Apr 09:25:15 09:26:56 12° 87° (E) 09:28:57 145.822/145.860
PCSat 19 Apr 09:25:37 09:28:39 16° 106° (ESE) 09:31:56 145.827
COMPASS 1 19 Apr 09:26:18 09:28:41 15° 89° (E) 09:31:14 437.405
O/OREOS (USA 219) 19 Apr 09:30:34 09:34:33 30° 58° (ENE) 09:38:31 437.305
CANX-2 19 Apr 09:35:09 09:38:58 31° 95° (E) 09:42:47 2200.000
SEEDS 19 Apr 09:39:21 09:42:54 26° 94° (E) 09:46:29 437.485
CUTE 1.7 + AOD 2 19 Apr 09:45:20 09:49:17 36° 96° (E) 09:53:15 437.475
GOMX 1 19 Apr 09:47:21 09:52:10 55° 99° (E) 09:57:19 467.674
TIGRISAT 19 Apr 10:02:45 10:05:36 17° 64° (ENE) 10:08:39 435.000
UNISAT 6 19 Apr 10:03:30 10:06:29 18° 64° (ENE) 10:09:40 437.425
HO-68 19 Apr 10:10:51 10:18:01 66° 103° (ESE) 10:25:09 435.675
ZACube-1 19 Apr 10:10:58 10:12:16 11° 86° (E) 10:13:51 437.345
CUBEBUG 2 19 Apr 10:12:22 10:15:40 19° 91° (E) 10:19:08 437.445
AAUSAT CUBESAT 2 19 Apr 10:13:54 10:17:55 43° 98° (E) 10:21:55 437.432
Cosmos 2491 19 Apr 10:20:43 10:28:34 35° 68° (ENE) 10:36:33 435.465 / 435.565
POLYITAN 1 19 Apr 10:23:12 10:25:16 14° 64° (ENE) 10:27:32 437.675
Oscar 11 19 Apr 10:25:43 10:29:28 28° 95° (E) 10:33:13 145.826/435.025
DUCHIFAT 1 19 Apr 10:32:47 10:35:22 17° 65° (ENE) 10:38:06 145.980
DELFI C3 19 Apr 10:36:45 10:40:11 26° 94° (E) 10:43:39 145.870
ANTELSAT 19 Apr 10:43:46 10:48:00 45° 71° (ENE) 10:52:23 437.575/2403.000
QB50P1 19 Apr 10:44:45 10:47:59 22° 67° (ENE) 10:51:19 145.935-145.965
DX 1 19 Apr 10:47:37 10:50:16 16° 91° (E) 10:53:06 434.975-435.025
UWE-3 19 Apr 10:53:15 10:57:39 39° 97° (E) 11:02:03 435.000/436.395/437.385
DOVE 4 19 Apr 10:59:18 11:04:01 46° 288° (WNW) 11:08:54 437.250
BUGSAT 1 19 Apr 10:59:45 11:02:48 22° 68° (ENE) 11:05:57 437.445
CINEMA 3 19 Apr 10:59:53 11:04:46 81° 284° (WNW) 11:09:47 145.822/145.860
COMPASS 1 19 Apr 11:00:37 11:04:43 48° 287° (WNW) 11:08:45 437.405
BRITE-PL 19 Apr 11:01:37 11:05:20 22° 293° (WNW) 11:09:07 437.365/2234.400
HUMSAT D 19 Apr 11:03:37 11:06:43 19° 91° (E) 11:09:55 437.325/437.525
PCSat 19 Apr 11:06:06 11:11:30 75° 302° (WNW) 11:16:58 145.827
QB50P2 19 Apr 11:07:23 11:11:17 39° 71° (ENE) 11:15:15 145.880/145.840
O/OREOS (USA 219) 19 Apr 11:10:02 11:13:55 28° 256° (WSW) 11:17:43 437.305
CANX-2 19 Apr 11:11:15 11:14:48 25° 292° (WNW) 11:18:15 2200.000
SEEDS 19 Apr 11:15:00 11:18:42 29° 291° (WNW) 11:22:20 437.485
CUTE 1.7 + AOD 2 19 Apr 11:21:42 11:25:02 21° 293° (WNW) 11:28:14 437.475
FUNcube-1 19 Apr 11:22:16 11:26:50 63° 100° (E) 11:31:23 145.935
VELOX 1 19 Apr 11:25:34 11:28:42 19° 92° (E) 11:31:57 145.980
GOMX 1 19 Apr 11:26:29 11:30:01 20° 294° (WNW) 11:33:33 467.674
POPSAT HIP 1 19 Apr 11:30:14 11:34:24 69° 74° (ENE) 11:38:36 437.405
NANOSAT C BR1 19 Apr 11:30:23 11:34:33 69° 75° (ENE) 11:38:46 145.865
YUBILEINY 19 Apr 11:30:33 11:38:21 38° 86° (E) 11:46:19 435.215
TIGRISAT 19 Apr 11:37:39 11:41:58 51° 261° (W) 11:46:26 435.000
UNISAT 6 19 Apr 11:38:37 11:42:55 48° 261° (W) 11:47:22 437.425
UKube-1 19 Apr 11:39:52 11:44:08 55° 100° (E) 11:48:24 .
AISAT 19 Apr 11:39:59 11:43:47 28° 95° (E) 11:47:39 437.250
ZACube-1 19 Apr 11:44:39 11:49:15 76° 284° (WNW) 11:53:51 437.345
CUBEBUG 2 19 Apr 11:48:04 11:52:39 48° 287° (WNW) 11:57:13 437.445
AAUSAT CUBESAT 2 19 Apr 11:50:22 11:53:15 18° 294° (WNW) 11:56:00 437.432
CUBEBUG 1 19 Apr 11:52:22 11:55:17 18° 91° (E) 11:58:19 437.445
50 SAT 19 Apr 11:53:27 11:57:18 40° 98° (E) 12:01:08 437.505
ESTCUBE 1 19 Apr 11:53:58 11:57:22 21° 92° (E) 12:00:52 437.505/2401.250
POLYITAN 1 19 Apr 11:56:37 12:00:46 59° 260° (W) 12:04:57 437.675
HO-68 19 Apr 11:59:25 12:05:16 27° 301° (WNW) 12:10:56 435.675
Oscar 11 19 Apr 12:01:51 12:05:36 28° 291° (WNW) 12:09:17 145.826/435.025
DUCHIFAT 1 19 Apr 12:06:50 12:10:53 46° 261° (W) 12:14:57 145.980
DELFI C3 19 Apr 12:11:53 12:15:17 25° 291° (WNW) 12:18:36 145.870
Cosmos 2491 19 Apr 12:17:20 12:25:51 55° 269° (W) 12:34:19 435.465 / 435.565
QB50P1 19 Apr 12:19:54 12:23:43 33° 264° (W) 12:27:32 145.935-145.965
ANTELSAT 19 Apr 12:21:54 12:25:05 18° 270° (W) 12:28:11 437.575/2403.000
DX 1 19 Apr 12:22:38 12:26:51 48° 288° (WNW) 12:31:01 434.975-435.025
BEESAT 2 19 Apr 12:30:02 12:31:48 13° 35° (NE) 12:33:42 435.950
UWE-3 19 Apr 12:30:14 12:33:58 23° 293° (WNW) 12:37:36 435.000/436.395/437.385
Oscar 19 19 Apr 12:31:10 12:33:35 14° 60° (ENE) 12:36:15 437.125/150
BUGSAT 1 19 Apr 12:34:33 12:38:10 31° 264° (W) 12:41:45 437.445
BEESAT 3 19 Apr 12:37:25 12:39:56 16° 39° (NE) 12:42:33 437.485
HUMSAT D 19 Apr 12:38:35 12:42:40 39° 289° (WNW) 12:46:42 437.325/437.525
CINEMA 3 19 Apr 12:39:58 12:41:19 11° 299° (WNW) 12:42:23 145.822/145.860
QB50P2 19 Apr 12:44:23 12:47:23 18° 268° (W) 12:50:19 145.880/145.840
PCSat 19 Apr 12:52:39 12:55:57 16° 323° (NW) 12:59:06 145.827
Cosmos 2504 19 Apr 12:59:22 13:01:59 12° 74° (ENE) 13:05:19 435.465 / 435.565
FUNcube-1 19 Apr 12:59:59 13:02:43 15° 296° (WNW) 13:05:17 145.935
VELOX 1 19 Apr 13:01:18 13:05:29 41° 289° (WNW) 13:09:38 145.980
POPSAT HIP 1 19 Apr 13:09:56 13:10:51 10° 273° (W) 13:11:31 437.405
NANOSAT C BR1 19 Apr 13:10:06 13:10:59 10° 273° (W) 13:11:36 145.865
AISAT 19 Apr 13:16:31 13:20:22 29° 292° (WNW) 13:24:09 437.250
AIST 1 19 Apr 13:16:44 13:20:59 67° 80° (E) 13:25:13
UKube-1 19 Apr 13:17:18 13:19:54 15° 296° (WNW) 13:22:21 .
SO-50 19 Apr 13:20:36 13:24:16 24° 113° (ESE) 13:28:08 436.795
YUBILEINY 19 Apr 13:26:29 13:35:02 50° 287° (WNW) 13:43:31 435.215
CUBEBUG 1 19 Apr 13:27:46 13:31:54 43° 288° (WNW) 13:36:00 437.445
50 SAT 19 Apr 13:29:05 13:31:52 18° 294° (WNW) 13:34:31 437.505
ESTCUBE 1 19 Apr 13:30:14 13:34:25 38° 289° (WNW) 13:38:31 437.505/2401.250
TISAT 1 19 Apr 13:36:54 13:41:02 51° 100° (E) 13:45:11 437.305
SPROUT 19 Apr 13:40:02 13:44:22 71° 102° (ESE) 13:48:41 437.525
AO-7 19 Apr 13:48:20 13:49:53 11° 40° (NE) 13:51:53 29.400- 29.500
BEESAT 2 19 Apr 14:06:32 14:10:41 78° 56° (NE) 14:14:46 435.950
Oscar 19 19 Apr 14:07:09 14:12:18 85° 255° (WSW) 14:17:31 437.125/150
BEESAT 19 Apr 14:07:21 14:10:32 18° 91° (E) 14:13:51 436.000
SWISSCUBE 19 Apr 14:08:26 14:11:52 20° 92° (E) 14:15:26 437.505
BEESAT 3 19 Apr 14:14:22 14:18:29 73° 239° (WSW) 14:22:30 437.485
Gurwin Techsat 1B 19 Apr 14:14:51 14:19:30 33° 67° (ENE) 14:24:15 435.225
AIST 2 19 Apr 14:23:22 14:27:25 41° 50° (NE) 14:31:24 435.215
ITAMSAT 1 19 Apr 14:26:15 14:31:12 48° 70° (ENE) 14:36:12 435.822/435.867
Cosmos 2504 19 Apr 14:45:13 14:53:52 64° 92° (E) 15:02:36 435.465 / 435.565
AIST 1 19 Apr 14:57:32 14:58:06 10° 276° (W) 14:58:26
SO-50 19 Apr 15:00:04 15:04:35 45° 311° (NW) 15:09:14 436.795
ITUPSAT 1 19 Apr 15:08:30 15:13:17 72° 103° (ESE) 15:18:02 437.325
JAS-2 19 Apr 15:13:44 15:19:54 27° 61° (ENE) 15:26:13 435.910
TISAT 1 19 Apr 15:13:52 15:16:28 16° 295° (WNW) 15:18:56 437.305
SPROUT 19 Apr 15:18:06 15:19:56 12° 297° (WNW) 15:21:34 437.525
STARS 19 Apr 15:32:34 15:35:12 16° 90° (E) 15:38:00 437.465
AO-7 19 Apr 15:33:04 15:40:42 44° 62° (ENE) 15:48:27 29.400- 29.500
ISS 19 Apr 15:35:37 15:38:52 79° 145° (SE) 15:42:08 145.825
HORYU 2 19 Apr 15:38:15 15:42:25 40° 70° (ENE) 15:46:39 437.375
BEESAT 19 Apr 15:44:06 15:48:44 50° 288° (WNW) 15:53:18 436.000
SWISSCUBE 19 Apr 15:45:27 15:50:00 45° 289° (WNW) 15:54:30 437.505
BEESAT 2 19 Apr 15:47:42 15:48:15 10° 251° (WSW) 15:48:33 435.950
Gurwin Techsat 1B 19 Apr 15:54:39 15:59:28 34° 264° (W) 16:04:16 435.225
RS-15 19 Apr 15:55:34 16:05:58 55° 114° (ESE) 16:16:38 29.354- 29.394
KKS-1 19 Apr 15:56:05 16:00:22 43° 98° (E) 16:04:39 437.445
GONETS M04 19 Apr 15:59:30 16:00:45 11° 73° (ENE) 16:02:46
AIST 2 19 Apr 16:02:30 16:05:47 21° 247° (WSW) 16:08:55 435.215
ITAMSAT 1 19 Apr 16:06:57 16:11:00 22° 268° (W) 16:14:55 435.822/435.867
Cosmos 2504 19 Apr 16:40:09 16:47:56 32° 294° (WNW) 16:55:31 435.465 / 435.565
SO-50 19 Apr 16:45:05 16:46:26 11° 333° (NNW) 16:47:39 436.795
ITUPSAT 1 19 Apr 16:48:03 16:50:39 14° 299° (WNW) 16:53:03 437.325
JAS-2 19 Apr 16:56:32 17:04:19 74° 258° (WSW) 17:12:09 435.910
STARS 19 Apr 17:07:41 17:12:01 51° 288° (WNW) 17:16:19 437.465
MOZHAYETS 4 19 Apr 17:09:46 17:12:56 19° 90° (E) 17:16:13
ISS 19 Apr 17:12:47 17:15:32 24° 344° (NNW) 17:18:16 145.825
HORYU 2 19 Apr 17:15:51 17:19:15 20° 268° (W) 17:22:34 437.375
AO-7 19 Apr 17:25:39 17:33:32 45° 261° (W) 17:41:22 29.400- 29.500
KKS-1 19 Apr 17:33:27 17:36:44 20° 295° (WNW) 17:39:56 437.445
GONETS M04 19 Apr 17:47:25 17:55:56 62° 92° (E) 18:04:36
CUTE-I 19 Apr 18:04:05 18:08:48 34° 67° (ENE) 18:13:35 437.470
RS-15 19 Apr 18:08:04 18:18:36 50° 318° (NW) 18:29:23 29.354- 29.394
PCSat 19 Apr 18:10:36 18:14:31 20° 41° (NE) 18:18:32 145.827
Cubesat XI-IV 19 Apr 18:11:21 18:16:16 39° 69° (ENE) 18:21:13 437.490
MOZHAYETS 4 19 Apr 18:46:02 18:50:27 45° 288° (WNW) 18:54:49
JAS-2 19 Apr 18:46:29 18:50:44 15° 278° (W) 18:54:27 435.910
AUBIESAT-1 19 Apr 18:48:30 18:51:10 16° 94° (E) 18:53:52 437.475
ISS 19 Apr 18:50:21 18:52:41 18° 4° (N) 18:55:01 145.825
HO-68 19 Apr 18:58:35 19:00:36 12° 48° (NE) 19:03:01 435.675
STRAND 1 19 Apr 19:03:39 19:05:03 11° 86° (E) 19:06:47 437.568
DANDE 19 Apr 19:05:09 19:08:00 62° 98° (E) 19:11:36 436.750
CUSAT 1 19 Apr 19:10:15 19:13:21 71° 282° (WNW) 19:17:21 437.405
Cosmos 2499 19 Apr 19:27:37 19:35:56 49° 90° (E) 19:44:17 435.465 / 435.565
M-CUBED/EXP-1 PRIME 19 Apr 19:33:08 19:37:34 57° 105° (ESE) 19:41:36 437.505
VERMONT LUNAR 19 Apr 19:43:53 19:45:54 15° 152° (SSE) 19:47:59 437.305
CUTE-I 19 Apr 19:44:06 19:48:53 33° 264° (W) 19:53:38 437.470
GONETS M04 19 Apr 19:45:48 19:53:27 31° 294° (WNW) 20:00:58
Cubesat XI-IV 19 Apr 19:51:54 19:56:30 28° 266° (W) 20:01:01 437.490
PCSat 19 Apr 19:53:10 19:58:38 78° 240° (WSW) 20:04:01 145.827
CUBESAT XI-V 19 Apr 20:02:59 20:07:38 88° 279° (W) 20:12:13 437.345
PRISM 19 Apr 20:18:46 20:22:54 89° 103° (ESE) 20:26:59 437.425
COMPASS 1 19 Apr 20:19:28 20:21:21 13° 64° (ENE) 20:23:25 437.405
AUBIESAT-1 19 Apr 20:22:04 20:26:22 48° 294° (WNW) 20:30:19 437.475
ISS 19 Apr 20:26:40 20:29:43 36° 24° (NNE) 20:32:46 145.825
CANX-2 19 Apr 20:29:13 20:32:45 26° 69° (ENE) 20:36:22 2200.000
CINEMA 3 19 Apr 20:29:24 20:30:28 11° 61° (ENE) 20:31:46 145.822/145.860
DOVE 4 19 Apr 20:29:53 20:32:57 21° 66° (ENE) 20:36:12 437.250
